TimePST,TemperatureF,Dew PointF,Humidity,Sea Level PressureIn,VisibilityMPH,Wind Direction,Wind SpeedMPH,Gust SpeedMPH,PrecipitationIn,Events,Conditions,WindDirDegrees,DateUTC
12:58 AM,37.8,30.4,75,30.36,10.0,NE,2.3,-,N/A,,Clear,40,2013-01-16 08:58:00
1:58 AM,38.1,30.4,74,30.36,10.0,North,3.5,-,N/A,,Clear,10,2013-01-16 09:58:00
2:58 AM,37.4,32.0,81,30.36,10.0,Calm,Calm,-,N/A,,Clear,0,2013-01-16 10:58:00
3:58 AM,35.6,30.2,81,30.35,10.0,WNW,2.3,-,N/A,,Clear,290,2013-01-16 11:58:00
4:58 AM,36.3,30.9,81,30.34,10.0,NNW,3.5,-,N/A,,Clear,340,2013-01-16 12:58:00
5:58 AM,36.1,30.9,81,30.33,10.0,North,2.3,-,N/A,,Clear,10,2013-01-16 13:58:00
6:58 AM,34.2,29.3,82,30.34,10.0,North,3.5,-,N/A,,Scattered Clouds,10,2013-01-16 14:58:00
7:58 AM,39.6,33.4,79,30.36,10.0,NNW,2.3,-,N/A,,Scattered Clouds,340,2013-01-16 15:58:00
8:58 AM,47.7,32.2,55,30.36,10.0,North,2.3,-,N/A,,Partly Cloudy,10,2013-01-16 16:58:00
9:58 AM,54.3,36.3,51,30.35,10.0,NW,2.3,-,N/A,,Partly Cloudy,320,2013-01-16 17:58:00
10:58 AM,59.9,36.5,42,30.31,10.0,Variable,2.3,-,N/A,,Partly Cloudy,0,2013-01-16 18:58:00
11:58 AM,64.0,33.3,32,30.26,10.0,Calm,Calm,-,N/A,,Clear,0,2013-01-16 19:58:00
12:58 PM,68.7,28.8,23,30.22,10.0,Variable,3.5,-,N/A,,Clear,0,2013-01-16 20:58:00
1:58 PM,70.2,28.0,21,30.19,10.0,West,4.6,-,N/A,,Clear,260,2013-01-16 21:58:00
2:58 PM,70.7,31.3,23,30.18,10.0,West,8.1,-,N/A,,Clear,270,2013-01-16 22:58:00
3:58 PM,62.2,44.6,52,30.18,10.0,South,3.5,-,N/A,,Clear,180,2013-01-16 23:58:00
4:58 PM,62.2,43.9,51,30.18,10.0,WNW,6.9,-,N/A,,Clear,300,2013-01-17 00:58:00
5:58 PM,57.4,39.9,52,30.18,10.0,NW,4.6,-,N/A,,Clear,310,2013-01-17 01:58:00
6:58 PM,54.9,38.7,54,30.19,10.0,NNW,3.5,-,N/A,,Clear,330,2013-01-17 02:58:00
7:58 PM,50.0,38.3,64,30.18,10.0,NNW,2.3,-,N/A,,Clear,330,2013-01-17 03:58:00
8:58 PM,47.7,38.5,70,30.16,10.0,Calm,Calm,-,N/A,,Clear,0,2013-01-17 04:58:00
9:58 PM,47.7,39.6,73,30.15,10.0,NW,5.8,-,N/A,,Clear,320,2013-01-17 05:58:00
10:58 PM,45.9,37.2,72,30.14,10.0,NNW,5.8,-,N/A,,Clear,330,2013-01-17 06:58:00
11:58 PM,46.6,35.2,65,30.13,10.0,NW,5.8,-,N/A,,Clear,320,2013-01-17 07:58:00